Location: La Comballaz
(46.3780°N, 7.0817°E)
Time: 17:04:48
(UTC+00:00)

AO-7 - Pass Details

Date: 13 December 2022
Orbit: 1440 x 1458 km, 101.9° (Epoch: 05 February)

Event Time Altitude Azimuth Distance (km) Brightness Sun altitude
Rises 02:28:19 0° 30° (NNE) 4,548 ? -46.7°
Reaches altitude 10° 02:32:34 10° 50° (NE) 3,568 ? -46.0°
Maximum altitude 02:37:31 17° 88° (E) 3,065 ? -45.2°
Drops below altitude 10° 02:42:26 10° 125° (SE) 3,564 ? -44.4°
Sets 02:46:36 0° 144° (SE) 4,540 ? -43.7°
